sat.trackr.live / text

‹ back to catalog

HULIANWANG DIGUI-131

NORAD 67239 · 2025-311D

PAYLOAD ACTIVE UNKNOWN

§ Identity

Operator
Country
PRC
Launch date
2025-12-25
Launch site
WSC
Launch vehicle
Mass (kg)
RCS (m²)

External: N2YO · Heavens-Above · Gunter

§ Orbital elements

Epoch: 2026-09-19T23:31:03.380736Z

Period
108.33 min
Inclination
50.0037°
Eccentricity
0.0000241
Mean motion
13.29326933 rev/d
Perigee alt
1,149.1 km
Apogee alt
1,149.5 km
Semi-major
7,527.4 km
B*
2.8472e-5
RAAN
136.1096°
Arg perigee
328.9928°
Mean anomaly
31.0930°
Rev number
3,594

§ Raw data

HULIANWANG DIGUI-1311 67239U 25311D   26262.97990024 -.00000111  00000+0  28472-4 0  99972 67239  50.0037 136.1096 0000241 328.9928  31.0930 13.29326933 35946

JSON: /api/v1/satellites/67239 · /tle

For live sub-satellite position, see the globe view (requires WebGL).

§ Visibility from observer

Set your observer location to see the next 7 days of passes ≥ 10°. The values pass through the URL so the page stays shareable.

No JS? Fill the form by hand. The geolocation button needs JavaScript.